EW1440 Weather Reports


Display with metric or nautical units.
time (UTC)temp
F
wind
direction
speed
MPH
gust
MPH
rain 1hr
in
rain 24hr
in
rain mn
in
humidity
%
barometer
mb
20260902194559 101 74 2.0 11.0 0.00 0.00 0.00 36 1013.6
20260902194033 100 70 3.0 16.0 0.00 0.00 0.00 36 1013.7
20260902193533 99 105 7.0 16.0 0.00 0.00 0.00 37 1013.8
20260902193102 98 86 8.0 14.0 0.00 0.00 0.00 39 1013.8
20260902192532 99 135 6.0 14.0 0.00 0.00 0.00 39 1013.9
20260902192033 98 103 7.0 12.0 0.00 0.00 0.00 41 1014.0
20260902191604 97 96 5.0 12.0 0.00 0.00 0.00 42 1014.1
20260902191034 96 216 5.0 12.0 0.00 0.00 0.00 44 1014.1
20260902190532 95 206 4.0 8.0 0.00 0.00 0.00 44 1014.1
20260902185533 99 251 1.0 11.0 0.00 0.00 0.00 40 1014.4
20260902185035 100 110 5.0 24.0 0.00 0.00 0.00 39 1014.6
20260902184555 99 166 6.0 24.0 0.00 0.00 0.00 41 1014.6
20260902184034 99 50 3.0 11.0 0.00 0.00 0.00 41 1014.6
20260902183533 98 147 2.0 11.0 0.00 0.00 0.00 42 1014.7
20260902183139 96 199 6.0 11.0 0.00 0.00 0.00 43 1014.9
20260902182533 94 195 4.0 9.0 0.00 0.00 0.00 46 1015.0
20260902182035 94 234 4.0 11.0 0.00 0.00 0.00 44 1015.0
20260902181610 98 0 2.0 12.0 0.00 0.00 0.00 41 1015.0
20260902181034 99 222 5.0 12.0 0.00 0.00 0.00 40 1015.2
20260902180532 99 206 8.0 12.0 0.00 0.00 0.00 41 1015.3
20260902180105 98 224 5.0 10.0 0.00 0.00 0.00 44 1015.4
20260902175533 98 289 5.0 10.0 0.00 0.00 0.00 43 1015.4
20260902175032 98 243 3.0 10.0 0.00 0.00 0.00 44 1015.5
20260902174555 98 153 4.0 11.0 0.00 0.00 0.00 47 1015.6
20260902174036 98 249 5.0 11.0 0.00 0.00 0.00 45 1015.7
20260902173532 97 222 6.0 11.0 0.00 0.00 0.00 45 1015.9
20260902173106 97 226 4.0 11.0 0.00 0.00 0.00 47 1016.0
20260902172533 97 240 4.0 10.0 0.00 0.00 0.00 47 1016.0
20260902172034 97 177 4.0 10.0 0.00 0.00 0.00 48 1016.0
20260902171626 96 289 4.0 10.0 0.00 0.00 0.00 49 1016.0
20260902171034 96 264 3.0 10.0 0.00 0.00 0.00 49 1016.0
20260902170534 95 0 3.0 10.0 0.00 0.00 0.00 50 1016.1
20260902170058 95 228 5.0 11.0 0.00 0.00 0.00 49 1016.3
20260902165534 95 226 3.0 11.0 0.00 0.00 0.00 51 1016.2
20260902165034 94 170 4.0 10.0 0.00 0.00 0.00 52 1016.3
20260902164627 94 182 3.0 10.0 0.00 0.00 0.00 53 1016.3
20260902164035 93 240 5.0 10.0 0.00 0.00 0.00 54 1016.3
20260902163534 92 110 4.0 10.0 0.00 0.00 0.00 57 1016.3
20260902163102 91 253 3.0 10.0 0.00 0.00 0.00 58 1016.3
20260902162534 91 156 4.0 9.0 0.00 0.00 0.00 60 1016.4
20260902162034 90 264 1.0 8.0 0.00 0.00 0.00 60 1016.4
20260902161600 89 197 2.0 11.0 0.00 0.00 0.00 61 1016.4
20260902161033 89 268 5.0 11.0 0.00 0.00 0.00 62 1016.5
20260902160534 89 193 5.0 11.0 0.00 0.00 0.00 63 1016.4
20260902160058 89 195 5.0 11.0 0.00 0.00 0.00 63 1016.4
20260902155533 88 155 3.0 11.0 0.00 0.00 0.00 66 1016.4
20260902155035 88 239 7.0 11.0 0.00 0.00 0.00 65 1016.5
20260902154559 87 224 2.0 9.0 0.00 0.00 0.00 66 1016.6
20260902154038 87 226 5.0 9.0 0.00 0.00 0.00 66 1016.6
20260902153534 87 261 2.0 9.0 0.00 0.00 0.00 68 1016.5
20260902153058 86 0 4.0 9.0 0.00 0.00 0.00 69 1016.5
20260902152533 86 77 1.0 9.0 0.00 0.00 0.00 72 1016.6
20260902152036 86 280 4.0 9.0 0.00 0.00 0.00 70 1016.6
20260902151600 85 182 3.0 9.0 0.00 0.00 0.00 72 1016.7
20260902151034 85 203 2.0 9.0 0.00 0.00 0.00 74 1016.5
20260902150532 84 220 4.0 9.0 0.00 0.00 0.00 74 1016.6
20260902150056 84 175 4.0 8.0 0.00 0.00 0.00 75 1016.5
20260902145535 83 186 4.0 8.0 0.00 0.00 0.00 76 1016.6
20260902145033 83 213 3.0 10.0 0.00 0.00 0.00 77 1016.7
20260902144603 83 184 3.0 11.0 0.00 0.00 0.00 77 1016.7
20260902144033 83 198 6.0 11.0 0.00 0.00 0.00 77 1016.8
20260902143534 82 199 6.0 11.0 0.00 0.00 0.00 79 1016.8
20260902143102 81 247 3.0 7.0 0.00 0.00 0.00 81 1016.7
20260902142534 81 243 2.0 7.0 0.00 0.00 0.00 82 1016.7
20260902142034 80 156 0.0 5.0 0.00 0.00 0.00 86 1016.6
20260902141557 79 106 2.0 5.0 0.00 0.00 0.00 90 1016.6
20260902141033 77 168 1.0 4.0 0.00 0.00 0.00 92 1016.6
20260902140533 77 98 2.0 6.0 0.00 0.00 0.00 92 1016.6
20260902140057 76 114 1.0 6.0 0.00 0.00 0.00 92 1016.6
20260902135534 76 81 2.0 6.0 0.00 0.00 0.00 92 1016.6
20260902135033 76 60 2.0 6.0 0.00 0.00 0.00 92 1016.5
20260902134552 75 95 2.0 6.0 0.00 0.00 0.00 92 1016.6
20260902134037 75 140 2.0 6.0 0.00 0.00 0.00 92 1016.5
20260902133535 74 81 3.0 5.0 0.00 0.00 0.00 92 1016.6
20260902133057 74 112 1.0 4.0 0.00 0.00 0.00 92 1016.5
20260902132536 73 162 1.0 3.0 0.00 0.00 0.00 92 1016.4
20260902132034 72 0 0.0 2.0 0.00 0.00 0.00 91 1016.4
20260902131612 72 162 0.0 2.0 0.00 0.00 0.00 91 1016.5
20260902131035 72 0 0.0 1.0 0.00 0.00 0.00 91 1016.4
20260902130534 71 0 0.0 1.0 0.00 0.00 0.00 90 1016.3
20260902125532 70 0 0.0 0.0 0.00 0.00 0.00 89 1016.2
20260902125034 70 0 0.0 0.0 0.00 0.00 0.00 89 1016.2
20260902124552 70 0 0.0 0.0 0.00 0.00 0.00 88 1016.1
20260902124033 70 0 0.0 0.0 0.00 0.00 0.00 88 1016.0
20260902123535 70 0 0.0 0.0 0.00 0.00 0.00 88 1016.1
20260902123058 70 0 0.0 1.0 0.00 0.00 0.00 88 1016.0
20260902122535 70 0 0.0 1.0 0.00 0.00 0.00 88 1016.0
20260902122035 70 0 0.0 0.0 0.00 0.00 0.00 87 1015.9
20260902121555 70 0 0.0 0.0 0.00 0.00 0.00 87 1015.9
20260902121034 70 0 0.0 0.0 0.00 0.00 0.00 87 1015.9
20260902120536 70 0 0.0 1.0 0.00 0.00 0.00 87 1015.9
20260902120059 70 0 0.0 2.0 0.00 0.00 0.00 87 1015.9
20260902115537 70 162 0.0 3.0 0.00 0.00 0.00 87 1015.9
20260902115032 70 162 1.0 3.0 0.00 0.00 0.00 87 1015.8
20260902114619 70 162 0.0 2.0 0.00 0.00 0.00 87 1015.9
20260902114036 70 0 0.0 2.0 0.00 0.00 0.00 87 1015.9
20260902113534 70 0 0.0 0.0 0.00 0.00 0.00 86 1015.8
20260902113058 70 0 0.0 0.0 0.00 0.00 0.00 86 1015.9
20260902112534 70 0 0.0 0.0 0.00 0.00 0.00 86 1015.8
20260902112036 70 0 0.0 0.0 0.00 0.00 0.00 86 1015.8
20260902111555 70 0 0.0 0.0 0.00 0.00 0.00 86 1015.8
20260902111033 70 0 0.0 0.0 0.00 0.00 0.00 85 1015.8
20260902110534 71 0 0.0 0.0 0.00 0.00 0.00 85 1015.8
20260902110105 71 0 0.0 0.0 0.00 0.00 0.00 85 1015.8
20260902105534 71 0 0.0 0.0 0.00 0.00 0.00 85 1015.8
20260902105034 71 0 0.0 0.0 0.00 0.00 0.00 84 1015.9
20260902104602 71 0 0.0 0.0 0.00 0.00 0.00 84 1015.8
20260902104034 71 0 0.0 0.0 0.00 0.00 0.00 84 1015.7
20260902103533 71 0 0.0 0.0 0.00 0.00 0.00 84 1015.8
20260902103106 71 0 0.0 0.0 0.00 0.00 0.00 84 1015.7
20260902102534 71 0 0.0 0.0 0.00 0.00 0.00 83 1015.7
20260902102034 71 0 0.0 0.0 0.00 0.00 0.00 83 1015.7
20260902101554 71 0 0.0 0.0 0.00 0.00 0.00 83 1015.7
20260902101032 71 0 0.0 0.0 0.00 0.00 0.00 82 1015.6
20260902100537 71 0 0.0 0.0 0.00 0.00 0.00 82 1015.8
20260902100056 71 0 0.0 0.0 0.00 0.00 0.00 82 1015.8
20260902095534 71 0 0.0 0.0 0.00 0.00 0.00 82 1015.7
20260902095033 72 0 0.0 0.0 0.00 0.00 0.00 81 1015.8
20260902094550 72 0 0.0 0.0 0.00 0.00 0.00 81 1015.8
20260902094034 72 0 0.0 0.0 0.00 0.00 0.00 81 1015.9
20260902093532 72 0 0.0 0.0 0.00 0.00 0.00 81 1015.8
20260902093057 72 0 0.0 0.0 0.00 0.00 0.00 80 1015.8
20260902092532 72 0 0.0 0.0 0.00 0.00 0.00 80 1015.8
20260902092033 72 0 0.0 0.0 0.00 0.00 0.00 80 1015.8
20260902091600 72 0 0.0 0.0 0.00 0.00 0.00 79 1015.8
20260902091032 72 0 0.0 0.0 0.00 0.00 0.00 79 1015.8
20260902090533 72 0 0.0 0.0 0.00 0.00 0.00 79 1015.7
20260902090058 73 0 0.0 0.0 0.00 0.00 0.00 79 1015.8
20260902085532 73 0 0.0 0.0 0.00 0.00 0.00 79 1015.8
20260902085032 73 0 0.0 0.0 0.00 0.00 0.00 78 1015.9
20260902084600 73 0 0.0 0.0 0.00 0.00 0.00 78 1015.8
20260902084033 73 0 0.0 1.0 0.00 0.00 0.00 78 1015.9
20260902083532 73 0 0.0 1.0 0.00 0.00 0.00 77 1015.8
20260902083052 74 0 0.0 1.0 0.00 0.00 0.00 77 1015.8
20260902082536 74 0 0.0 1.0 0.00 0.00 0.00 76 1015.8
20260902082034 74 0 0.0 2.0 0.00 0.00 0.00 76 1015.8
20260902081552 74 0 0.0 2.0 0.00 0.00 0.00 76 1015.8
20260902081034 74 162 0.0 2.0 0.00 0.00 0.00 75 1015.8
20260902080535 75 0 0.0 0.0 0.00 0.00 0.00 74 1015.8
20260902080059 75 0 0.0 0.0 0.00 0.00 0.00 73 1015.9
20260902075532 75 0 0.0 0.0 0.00 0.00 0.00 73 1015.9
20260902075032 75 0 0.0 0.0 0.00 0.00 0.00 73 1016.0
20260902074559 76 0 0.0 0.0 0.00 0.00 0.00 72 1016.0
20260902074033 76 0 0.0 0.0 0.00 0.00 0.00 72 1015.9
20260902073532 76 0 0.0 0.0 0.00 0.00 0.00 72 1015.9
20260902073054 76 0 0.0 0.0 0.00 0.00 0.00 71 1015.9
20260902072532 77 0 0.0 1.0 0.00 0.00 0.00 71 1015.9
20260902072032 77 0 0.0 2.0 0.00 0.00 0.00 72 1015.9
20260902071557 77 0 0.0 3.0 0.00 0.00 0.00 72 1016.0
20260902071033 78 162 1.0 5.0 0.00 0.00 0.00 71 1015.9
20260902070533 78 0 1.0 5.0 0.00 0.00 0.00 69 1015.8
20260902070105 78 162 2.0 5.0 0.00 0.00 0.00 68 1015.8
20260902065532 79 151 1.0 4.0 0.00 0.00 0.00 67 1015.7
20260902065033 79 121 0.0 2.0 0.00 0.00 0.00 67 1015.7
20260902064559 79 0 0.0 2.0 0.00 0.00 0.00 67 1015.8
20260902064033 80 121 0.0 2.0 0.00 0.00 0.00 67 1015.8
20260902063536 80 0 0.0 1.0 0.00 0.00 0.00 66 1015.9
20260902063105 80 0 0.0 1.0 0.00 0.00 0.00 66 1015.8
20260902062535 80 0 0.0 1.0 0.00 0.00 0.00 65 1015.8
20260902062033 81 0 0.0 2.0 0.00 0.00 0.00 65 1015.6
20260902061557 81 0 0.0 4.0 0.00 0.00 0.00 65 1015.6
20260902061034 81 121 1.0 7.0 0.00 0.00 0.00 65 1015.7
20260902060532 81 117 2.0 8.0 0.00 0.00 0.00 65 1015.8
20260902060128 81 116 3.0 11.0 0.00 0.00 0.00 65 1015.7
20260902055532 81 122 5.0 11.0 0.00 0.00 0.00 64 1015.6
20260902055033 81 128 5.0 8.0 0.00 0.00 0.00 64 1015.5
20260902054559 81 127 4.0 11.0 0.00 0.00 0.00 64 1015.6
20260902054033 82 179 5.0 11.0 0.00 0.00 0.00 64 1015.6
20260902053535 82 159 4.0 9.0 0.00 0.00 0.00 64 1015.5
20260902053056 82 138 4.0 9.0 0.00 0.00 0.00 63 1015.5
20260902052533 82 137 5.0 9.0 0.00 0.00 0.00 64 1015.5
20260902052033 82 145 5.0 10.0 0.00 0.00 0.00 64 1015.5
20260902051601 82 142 5.0 12.0 0.00 0.00 0.00 64 1015.5
20260902051033 82 141 5.0 12.0 0.00 0.00 0.00 64 1015.5
20260902050533 82 140 5.0 11.0 0.00 0.00 0.00 64 1015.5
20260902045538 81 160 6.0 10.0 0.00 0.00 0.00 65 1015.4
20260902045032 81 145 4.0 9.0 0.00 0.00 0.00 66 1015.4
20260902044557 81 145 5.0 10.0 0.00 0.00 0.00 67 1015.4
20260902044035 81 128 4.0 10.0 0.00 0.00 0.00 68 1015.4
20260902043533 80 153 4.0 10.0 0.00 0.00 0.00 68 1015.3
20260902043057 80 126 4.0 10.0 0.00 0.00 0.00 69 1015.3
20260902042533 80 143 4.0 8.0 0.00 0.00 0.00 69 1015.3
20260902042032 79 147 4.0 8.0 0.00 0.00 0.00 69 1015.3
20260902041609 79 145 3.0 8.0 0.00 0.00 0.00 69 1015.3
20260902041032 78 120 3.0 7.0 0.00 0.00 0.00 68 1015.2
20260902040533 78 144 2.0 7.0 0.00 0.00 0.00 66 1015.2
20260902040100 78 108 3.0 6.0 0.00 0.00 0.00 65 1015.2
20260902035532 78 104 1.0 4.0 0.00 0.00 0.00 65 1015.0
20260902035033 78 113 1.0 4.0 0.00 0.00 0.00 64 1015.0
20260902034558 78 113 1.0 6.0 0.00 0.00 0.00 64 1015.0
20260902034034 78 103 2.0 8.0 0.00 0.00 0.00 63 1014.9
20260902033535 78 83 2.0 8.0 0.00 0.00 0.00 63 1014.8
20260902033058 78 65 4.0 8.0 0.00 0.00 0.00 62 1014.7
20260902032537 79 0 0.0 0.0 0.00 0.00 0.00 62 1014.4
20260902032034 79 0 0.0 0.0 0.00 0.00 0.00 61 1014.4
20260902031602 79 0 0.0 0.0 0.00 0.00 0.00 61 1014.4
20260902031033 79 0 0.0 0.0 0.00 0.00 0.00 60 1014.4
20260902030533 80 0 0.0 0.0 0.00 0.00 0.00 60 1014.3
20260902030054 80 0 0.0 0.0 0.00 0.00 0.00 60 1014.2
20260902025533 80 0 0.0 1.0 0.00 0.00 0.00 59 1014.3
20260902025034 80 0 0.0 1.0 0.00 0.00 0.00 58 1014.1
20260902024555 81 0 0.0 1.0 0.00 0.00 0.00 58 1014.1
20260902024032 81 143 0.0 2.0 0.00 0.00 0.00 57 1014.1
20260902023533 81 143 0.0 2.0 0.00 0.00 0.00 57 1014.0
20260902023052 82 0 0.0 2.0 0.00 0.00 0.00 56 1013.9
20260902022534 82 0 0.0 2.0 0.00 0.00 0.00 55 1013.9
20260902022033 82 143 1.0 2.0 0.00 0.00 0.00 55 1013.8
20260902021558 83 143 1.0 2.0 0.00 0.00 0.00 54 1013.8
20260902021033 83 143 1.0 2.0 0.00 0.00 0.00 54 1013.7
20260902020533 84 143 0.0 2.0 0.00 0.00 0.00 53 1013.6
20260902020058 84 143 1.0 2.0 0.00 0.00 0.00 52 1013.4
20260902015533 85 143 1.0 2.0 0.00 0.00 0.00 51 1013.3
20260902015036 85 143 1.0 2.0 0.00 0.00 0.00 51 1013.2
20260902014556 86 143 1.0 2.0 0.00 0.00 0.00 50 1013.2
20260902014036 87 143 0.0 1.0 0.00 0.00 0.00 49 1013.3
20260902013537 87 0 0.0 1.0 0.00 0.00 0.00 49 1013.3
20260902013051 88 0 0.0 1.0 0.00 0.00 0.00 48 1013.1
20260902012535 88 0 0.0 1.0 0.00 0.00 0.00 48 1013.0
20260902012035 89 0 0.0 2.0 0.00 0.00 0.00 47 1013.0
20260902011549 90 143 0.0 2.0 0.00 0.00 0.00 47 1013.0
20260902011034 90 143 1.0 2.0 0.00 0.00 0.00 46 1013.0
20260902010535 91 141 1.0 2.0 0.00 0.00 0.00 44 1013.0
20260902010057 91 141 1.0 2.0 0.00 0.00 0.00 44 1012.9
20260902005534 92 0 0.0 3.0 0.00 0.00 0.00 44 1013.0
20260902005037 92 0 1.0 3.0 0.00 0.00 0.00 43 1013.0
20260902004558 93 0 0.0 3.0 0.00 0.00 0.00 42 1013.0
20260902004033 93 112 0.0 3.0 0.00 0.00 0.00 41 1013.1
20260902003533 93 112 1.0 4.0 0.00 0.00 0.00 40 1012.9
20260902003106 93 112 1.0 8.0 0.00 0.00 0.00 39 1013.0
20260902002536 93 112 3.0 8.0 0.00 0.00 0.00 39 1013.0
20260902002036 93 132 3.0 8.0 0.00 0.00 0.00 38 1012.9
20260902001554 93 84 2.0 7.0 0.00 0.00 0.00 40 1013.0
20260902001038 93 97 3.0 8.0 0.00 0.00 0.00 40 1012.9
20260902000533 94 93 3.0 8.0 0.00 0.00 0.00 39 1012.9
20260902000115 94 84 3.0 8.0 0.00 0.00 0.00 38 1013.0
20260901235533 94 128 4.0 12.0 0.00 0.00 0.00 38 1012.9
20260901235035 95 110 5.0 12.0 0.00 0.00 0.00 39 1013.0
20260901234557 95 97 5.0 10.0 0.00 0.00 0.00 39 1013.1
20260901234034 95 103 4.0 15.0 0.00 0.00 0.00 38 1013.1
20260901233535 96 151 6.0 15.0 0.00 0.00 0.00 37 1013.0
20260901233054 96 116 3.0 9.0 0.00 0.00 0.00 38 1013.0
20260901232534 96 80 3.0 9.0 0.00 0.00 0.00 37 1013.0
20260901232038 96 135 4.0 9.0 0.00 0.00 0.00 37 1013.0
20260901231557 96 104 4.0 14.0 0.00 0.00 0.00 37 1013.1
20260901231034 96 0 2.0 14.0 0.00 0.00 0.00 37 1013.1
20260901230533 96 106 7.0 14.0 0.00 0.00 0.00 37 1013.0
20260901230114 97 117 6.0 13.0 0.00 0.00 0.00 36 1013.1
20260901225535 97 80 6.0 13.0 0.00 0.00 0.00 36 1013.0
20260901225032 97 78 6.0 13.0 0.00 0.00 0.00 35 1013.1
20260901224550 97 117 5.0 9.0 0.00 0.00 0.00 35 1013.0
20260901224032 97 91 3.0 11.0 0.00 0.00 0.00 35 1013.0
20260901223535 98 101 4.0 11.0 0.00 0.00 0.00 36 1013.1
20260901223114 98 89 5.0 11.0 0.00 0.00 0.00 35 1013.1
20260901222534 98 33 2.0 9.0 0.00 0.00 0.00 36 1013.1
20260901222036 100 0 1.0 12.0 0.00 0.00 0.00 31 1013.1
20260901221558 99 66 6.0 12.0 0.00 0.00 0.00 33 1013.2
20260901221033 99 93 6.0 12.0 0.00 0.00 0.00 33 1013.2
20260901220534 99 83 6.0 11.0 0.00 0.00 0.00 34 1013.2
20260901220127 101 228 3.0 13.0 0.00 0.00 0.00 30 1013.2
20260901215533 101 111 4.0 13.0 0.00 0.00 0.00 31 1013.3
20260901215033 102 137 4.0 11.0 0.00 0.00 0.00 30 1013.3
20260901214549 103 97 4.0 11.0 0.00 0.00 0.00 31 1013.3
20260901214035 102 157 3.0 14.0 0.00 0.00 0.00 30 1013.4
20260901213533 102 165 5.0 14.0 0.00 0.00 0.00 30 1013.5
20260901213115 102 122 6.0 13.0 0.00 0.00 0.00 30 1013.4
20260901212533 102 109 7.0 14.0 0.00 0.00 0.00 32 1013.5
20260901212033 102 167 4.0 16.0 0.00 0.00 0.00 30 1013.5
20260901211602 102 185 6.0 16.0 0.00 0.00 0.00 30 1013.6
20260901211032 102 139 2.0 8.0 0.00 0.00 0.00 31 1013.7
20260901210534 102 22 4.0 13.0 0.00 0.00 0.00 31 1013.8
20260901205533 102 108 6.0 16.0 0.00 0.00 0.00 30 1014.0
20260901205035 102 116 8.0 15.0 0.00 0.00 0.00 29 1014.1
20260901204609 102 137 8.0 15.0 0.00 0.00 0.00 30 1014.2
20260901204035 102 116 5.0 17.0 0.00 0.00 0.00 31 1014.1
20260901203533 102 110 4.0 17.0 0.00 0.00 0.00 32 1014.3
20260901203101 102 168 7.0 16.0 0.00 0.00 0.00 31 1014.3
20260901202533 102 116 4.0 12.0 0.00 0.00 0.00 31 1014.4
20260901202041 102 141 6.0 12.0 0.00 0.00 0.00 31 1014.5
20260901201558 102 199 4.0 11.0 0.00 0.00 0.00 31 1014.6
20260901201035 101 186 4.0 14.0 0.00 0.00 0.00 31 1014.7
20260901200535 101 107 5.0 15.0 0.00 0.00 0.00 32 1014.8
20260901200057 102 177 6.0 15.0 0.00 0.00 0.00 31 1014.9
20260901195533 101 222 4.0 15.0 0.00 0.00 0.00 30 1014.9
20260901195039 102 118 4.0 14.0 0.00 0.00 0.00 30 1015.0